Theta_e
304 296 294 293 296 299 301 300 299 299 299 299 298 297 294 294 295 298 299 301 302 297 296 296 297 297 297 299 300 302 303 302 302 302 303 304 305 306 306 306 307 306 306 312 311 309 309 309 309 309 309 308 308 307 307 307 308 310 311 312 312 312 312 313 313 315 316 315 316 316 316 316 317 317 318 318 318 318 317 318 316 315 314 314 313 312
301 295 295 298 299 301 301 302 301 300 300 297 296 295 294 295 293 298 298 301 302 297 295 297 296 296 297 299 300 302 302 301 302 302 303 304 305 306 306 306 305 306 310 309 307 307 308 308 308 308 308 307 306 307 307 306 307 308 309 309 311 312 311 311 312 313 314 315 315 315 315 315 316 315 315 315 316 316 317 316 316 314 313 313 312 310
295 293 297 300 302 302 302 300 300 297 296 297 294 294 294 294 297 299 300 301 300 295 294 296 294 295 297 299 301 302 302 302 303 304 304 305 305 305 305 305 306 306 306 305 305 306 306 307 306 306 306 305 305 305 305 306 306 306 308 309 310 311 311 310 310 311 311 313 314 314 314 314 314 316 316 315 315 315 314 314 314 313 312 312 310 309
294 298 300 302 302 301 300 300 298 297 297 295 294 293 292 296 294 292 298 297 298 295 294 295 294 295 298 301 302 303 303 303 305 305 306 307 303 304 304 304 305 305 304 303 303 303 303 304 304 303 303 303 304 304 305 304 304 305 305 307 308 309 310 310 310 309 311 312 313 314 313 313 313 312 312 312 313 312 312 311 311 312 311 311 309 308
296 301 302 302 301 300 297 298 297 295 294 297 296 295 294 294 296 295 295 297 298 298 298 296 294 296 300 299 300 302 304 303 304 306 306 305 306 306 306 305 304 302 302 301 301 301 301 301 301 301 302 302 302 302 303 303 303 304 304 305 306 308 308 309 309 308 309 309 310 310 310 309 309 308 307 307 307 308 308 309 308 309 310 310 309 308
297 301 301 299 298 298 297 295 296 296 293 295 298 297 296 297 296 296 296 294 292 292 295 293 289 291 298 299 299 302 303 303 305 304 303 303 304 304 303 303 303 303 302 300 299 299 300 299 300 300 300 300 301 301 302 303 303 304 304 305 306 306 307 307 308 308 308 307 307 306 305 304 304 303 304 303 304 305 305 306 308 308 308 309 308 308
298 300 300 298 298 298 297 295 297 297 293 292 294 299 298 297 296 295 294 293 288 287 294 295 287 285 295 296 299 300 301 301 304 303 302 301 301 301 300 300 300 300 300 300 299 299 298 298 298 298 298 299 299 300 302 302 303 303 303 304 305 305 305 307 306 307 306 306 306 305 305 305 304 303 305 306 306 306 307 307 306 307 307 307 307 307
298 298 297 297 296 296 296 293 297 297 294 291 296 298 297 296 294 294 294 293 290 295 296 295 292 287 288 295 300 300 299 300 299 299 299 299 298 298 299 299 298 298 298 298 297 297 297 297 297 297 298 298 298 300 301 301 301 301 302 302 302 303 304 304 305 305 306 304 305 305 305 305 304 304 304 305 305 306 305 305 305 305 305 305 306 305
297 296 296 295 295 295 294 297 302 300 295 295 295 296 295 293 294 294 293 291 292 290 287 292 294 287 288 296 299 300 297 296 296 296 297 297 298 297 297 297 297 297 297 296 295 295 295 296 296 297 297 298 298 299 299 300 300 301 301 301 301 301 302 302 304 304 304 304 304 304 304 304 305 305 305 305 306 304 304 303 303 303 303 303 304 304
296 297 298 298 296 293 298 297 298 299 294 298 296 296 296 296 295 294 291 291 291 288 284 290 293 287 288 296 297 297 296 294 294 295 295 296 296 296 296 296 295 295 295 295 295 295 295 295 296 297 297 297 297 298 299 299 299 299 299 299 299 299 300 301 302 303 303 304 303 303 303 303 303 304 304 304 304 304 304 302 302 302 302 302 302 302
297 296 297 295 295 298 296 294 296 298 297 296 297 295 294 295 294 294 293 290 288 284 287 293 293 291 285 294 296 296 295 295 295 295 296 295 295 295 294 294 293 293 293 293 293 294 294 295 296 296 295 296 297 297 298 298 298 298 298 298 297 298 299 300 300 301 301 302 303 302 302 302 302 303 303 302 302 303 303 302 302 302 301 301 301 301
297 295 294 297 299 297 298 295 295 295 296 296 293 292 292 291 293 290 289 290 284 284 290 293 293 294 284 291 296 298 299 299 298 295 294 293 293 293 293 293 293 292 291 292 291 291 292 293 294 294 294 294 295 295 296 296 297 297 297 297 296 296 297 298 299 299 300 301 301 301 301 301 301 301 301 301 301 302 301 302 301 301 301 300 301 300
292 294 297 298 297 297 296 294 294 294 294 293 292 291 286 286 288 284 286 281 283 284 288 290 292 289 289 293 298 300 297 297 297 297 294 293 292 291 291 291 292 292 290 289 290 290 289 290 291 291 292 293 293 293 294 295 296 296 296 296 295 295 296 296 297 297 298 298 299 299 299 300 300 300 301 300 300 301 301 301 301 301 300 300 300 299
295 299 297 297 296 297 298 291 292 290 292 292 290 289 286 283 283 281 285 288 288 287 288 290 293 286 292 295 300 299 295 296 295 294 294 293 292 291 291 291 291 291 290 289 289 288 288 289 289 289 290 291 292 292 293 293 294 295 295 295 295 295 296 296 296 296 296 297 297 298 298 298 299 299 299 300 299 300 300 301 300 300 300 300 300 300
287 289 295 295 293 298 296 296 297 297 294 293 297 293 289 288 284 280 284 281 283 286 289 292 287 286 287 291 295 293 294 294 294 293 293 292 292 291 291 291 290 290 289 289 288 287 287 288 288 288 289 290 290 291 292 292 293 293 293 293 293 294 294 295 295 295 295 295 296 296 297 297 297 297 298 298 299 299 299 299 299 300 300 299 300 300
291 291 298 300 298 298 296 299 302 297 294 295 296 295 289 288 295 284 286 285 285 285 285 287 286 291 292 297 295 295 294 293 293 292 292 291 291 290 289 289 289 288 288 288 288 287 287 287 288 288 289 289 289 290 291 291 292 292 292 293 293 293 293 293 294 294 295 295 295 295 295 295 296 296 297 297 298 298 298 299 299 298 299 299 299 300
292 289 299 297 296 297 299 301 299 300 286 292 291 287 291 300 294 288 287 287 287 285 281 289 288 292 297 299 295 294 292 292 292 291 291 290 289 289 288 287 287 287 287 287 287 287 287 287 287 288 288 288 289 290 290 290 291 291 292 292 291 292 292 292 292 293 294 294 294 294 294 294 294 295 295 295 296 297 297 298 298 298 298 298 298 299
288 289 300 297 294 298 295 298 299 300 300 293 287 292 295 298 296 290 282 285 283 279 281 287 284 287 289 285 296 293 291 290 289 289 289 288 288 287 286 286 286 287 287 287 287 287 287 287 287 287 288 288 288 289 289 289 290 291 291 291 291 291 291 291 292 292 292 292 293 293 293 294 294 294 294 294 294 295 296 296 297 297 297 297 298 298
297 287 293 298 298 296 295 296 294 298 298 294 292 296 290 285 284 289 285 278 278 278 281 285 287 287 290 289 293 291 291 289 288 288 287 286 286 285 285 285 285 286 286 286 286 286 286 286 286 286 287 287 288 288 289 290 290 290 290 291 291 290 291 291 291 291 292 292 292 292 292 292 292 293 293 294 294 294 294 294 295 295 296 296 297 297
298 286 289 296 296 296 295 294 287 292 295 295 295 293 298 291 287 285 286 286 285 278 280 280 285 283 293 292 296 294 293 290 287 286 285 284 284 284 284 284 284 284 284 285 285 285 285 285 285 285 285 286 287 287 288 288 289 288 289 289 289 290 290 290 290 290 290 291 291 291 291 291 291 292 292 293 292 292 292 292 293 293 294 294 295 295
292 296 283 292 293 297 289 293 290 293 289 289 289 288 291 289 292 291 290 287 284 281 280 280 279 285 293 293 293 291 292 291 289 286 284 284 283 283 283 284 284 284 285 285 285 285 285 285 285 286 286 286 286 287 287 288 288 288 289 288 289 288 288 288 289 289 290 290 290 290 289 289 289 290 291 291 291 290 291 291 292 292 292 293 293 294
290 290 285 288 289 290 291 297 297 295 295 293 291 288 291 288 285 282 280 290 286 284 280 280 278 287 294 292 293 291 290 289 289 286 285 284 284 284 284 284 285 285 285 285 286 286 286 286 286 287 287 288 288 289 289 290 290 290 289 288 288 288 287 287 288 288 289 289 289 288 288 288 289 289 289 289 290 289 290 290 291 291 292 291 292 292
293 290 286 284 287 290 294 297 297 297 297 296 294 291 294 292 290 285 279 283 287 285 286 285 281 284 289 289 290 290 289 288 288 288 286 285 285 285 285 285 285 285 285 286 286 287 287 287 287 287 287 287 287 287 287 288 288 288 288 288 288 287 288 288 288 288 288 289 288 288 288 288 288 288 288 288 288 287 288 289 289 291 290 291 291 291
292 286 285 285 290 293 295 298 298 297 296 293 294 295 293 289 290 287 285 286 282 285 283 283 279 284 287 288 287 287 288 289 289 289 287 286 286 285 285 285 284 285 286 286 287 287 287 287 287 287 287 287 287 287 287 287 287 287 288 287 287 287 287 288 288 288 288 288 288 288 288 287 287 287 287 286 287 287 288 288 289 289 289 290 290 290
287 289 287 280 281 284 287 291 293 294 293 288 287 291 291 290 287 288 287 287 282 283 284 281 276 284 284 286 287 288 288 287 287 287 287 287 286 285 284 285 285 285 285 285 286 286 286 286 286 286 286 286 286 286 286 287 287 287 287 287 287 287 287 287 288 288 288 287 287 287 287 287 287 286 286 286 287 287 287 288 288 288 288 288 288 289
289 287 285 278 276 275 275 277 280 283 286 289 289 289 291 290 289 286 282 284 279 283 285 281 281 286 284 287 289 288 288 288 286 285 285 286 285 284 284 285 285 285 285 285 285 286 285 286 286 286 286 286 286 286 286 287 287 287 287 287 287 287 287 287 288 287 287 287 287 287 287 286 286 286 286 286 286 286 287 287 287 287 287 288 287 288
288 289 287 285 282 279 282 285 288 290 287 283 286 287 288 290 290 287 285 280 277 281 279 281 281 282 284 287 288 287 287 287 286 285 285 285 284 285 286 286 285 285 285 285 285 285 286 286 285 286 286 286 286 286 286 286 286 287 287 287 287 287 287 287 287 287 286 287 286 286 286 286 286 286 286 286 286 286 287 287 286 286 286 287 287 287
287 284 286 286 285 286 287 287 289 289 285 286 285 285 287 287 287 284 282 279 284 279 275 283 284 282 282 285 288 290 289 286 286 285 285 285 285 285 286 286 286 285 285 285 285 285 285 285 286 286 286 286 286 286 286 287 287 287 287 286 287 287 287 288 287 286 286 286 286 285 286 286 286 286 286 286 286 286 286 286 286 286 286 286 286 286
285 282 286 286 284 287 287 287 288 287 287 286 285 284 284 285 285 282 282 284 284 279 276 281 283 281 283 285 286 288 289 288 286 286 286 286 285 285 285 285 285 285 285 285 284 285 285 285 285 286 286 286 286 286 286 286 286 287 287 287 287 287 287 287 287 286 286 286 285 285 286 286 286 287 286 286 285 285 285 285 285 285 286 286 286 286
286 282 285 285 282 284 285 286 287 285 285 284 284 284 285 284 283 284 284 285 283 281 283 283 283 282 285 286 287 284 285 285 284 285 285 284 284 284 284 284 284 284 285 285 285 285 285 285 285 286 286 286 286 286 286 286 286 286 286 287 287 287 287 287 286 285 285 285 285 285 286 286 286 286 286 286 285 285 285 285 285 284 284 284 285 285
285 280 285 281 281 280 283 285 285 285 284 281 283 284 283 283 283 284 283 283 284 282 283 283 282 281 287 286 284 285 285 285 284 283 283 283 284 283 283 283 283 284 285 286 286 285 285 285 285 286 286 286 286 286 286 286 286 287 286 286 287 287 287 287 286 285 285 285 285 285 285 285 285 285 285 285 285 285 285 285 284 284 284 284 284 284
286 281 284 281 277 276 281 281 282 282 282 279 278 280 281 281 279 281 280 283 282 279 281 281 279 280 284 281 281 282 283 282 281 282 282 283 283 282 282 282 282 283 283 284 285 286 286 285 285 285 285 286 286 286 286 286 287 286 286 286 286 287 287 286 285 285 285 285 285 285 285 285 285 284 284 285 284 284 284 284 283 283 283 283 284 284
284 282 279 279 276 275 280 281 279 278 277 274 275 278 280 281 282 282 283 284 283 283 279 277 278 283 281 284 282 282 281 281 281 281 282 282 282 282 282 282 283 283 284 284 285 285 286 286 286 286 286 286 286 287 287 288 287 287 287 286 287 287 286 285 285 285 285 284 284 284 284 284 284 283 283 283 284 284 283 283 282 282 282 282 283 283
283 281 279 281 274 274 278 277 277 274 268 270 282 284 283 281 281 279 279 281 283 284 281 283 281 282 282 280 280 279 279 280 281 282 283 282 282 282 282 283 283 283 284 284 284 285 285 286 286 287 286 286 287 287 288 288 287 287 288 287 287 286 285 285 285 285 284 284 284 284 284 284 283 282 282 283 283 283 282 282 281 281 282 282 282 282
280 280 278 280 275 273 277 275 271 266 268 280 283 285 284 283 282 280 280 281 282 283 283 283 283 282 282 281 280 281 281 282 282 282 282 283 283 283 282 283 283 283 283 283 283 284 284 285 285 286 286 286 287 288 288 287 287 287 286 285 284 284 284 284 284 284 283 283 283 283 283 283 283 283 283 283 283 282 282 281 281 280 280 281 281 281
278 278 278 277 277 276 274 272 265 266 277 277 281 282 284 283 281 280 278 280 281 282 282 281 283 283 281 281 281 281 281 282 283 283 283 284 285 284 283 283 283 283 282 283 283 284 284 284 285 285 285 286 286 286 286 285 285 284 282 283 282 282 282 282 282 282 283 283 282 283 283 283 282 282 282 282 282 282 281 281 280 280 280 280 280 281
282 279 278 274 278 270 272 271 271 276 276 277 278 280 281 277 279 278 273 277 280 281 282 282 283 282 281 280 280 281 281 282 280 281 284 284 285 285 284 283 284 283 284 284 284 284 285 285 284 284 284 283 283 283 283 283 282 281 281 280 281 281 281 281 280 281 281 282 282 282 282 282 282 281 281 281 281 280 280 280 279 279 280 279 279 279
283 277 278 274 272 276 271 270 270 270 266 272 279 278 283 283 282 281 279 273 282 282 283 282 282 280 278 279 279 280 281 278 276 278 283 284 284 285 284 285 284 284 284 284 285 285 284 284 283 283 282 281 281 281 281 281 280 280 279 279 279 278 278 279 279 279 280 280 280 280 281 281 281 280 280 279 279 279 280 279 279 278 279 278 277 277
280 282 280 276 273 274 271 268 267 266 268 277 277 281 282 283 282 281 277 271 279 278 281 281 278 278 278 278 278 280 277 273 274 278 282 283 283 284 283 283 284 284 284 284 283 282 282 281 281 281 281 280 279 279 279 279 278 277 276 276 276 276 276 276 276 277 277 277 277 278 278 278 278 278 277 277 277 278 277 277 277 277 277 277 277 277
275 276 276 273 272 272 271 269 267 272 270 275 276 279 280 280 283 278 267 268 276 276 278 278 277 278 278 279 279 278 276 273 274 279 283 283 284 284 283 283 283 283 283 283 282 281 280 280 280 279 278 277 277 277 276 276 275 274 273 273 273 273 273 274 274 274 274 274 275 275 275 275 275 275 275 274 275 275 275 276 275 275 275 275 275 275
273 273 275 270 272 272 272 269 272 272 278 277 277 280 282 283 278 269 264 273 276 277 280 280 279 280 280 279 279 276 278 280 281 282 283 284 283 283 284 283 283 282 281 280 280 281 279 279 278 277 276 276 275 274 274 273 272 270 270 270 270 270 271 272 272 272 271 272 272 272 272 272 272 271 271 271 272 273 273 273 273 273 273 273 273 273
270 272 272 274 271 270 271 269 269 273 278 280 282 282 283 278 269 268 276 280 280 279 281 281 280 280 280 279 279 279 280 282 282 283 282 283 282 283 282 282 281 280 280 280 280 279 277 276 275 274 274 274 273 272 272 270 268 268 268 268 267 268 269 269 269 268 268 267 268 268 267 266 267 267 267 268 269 269 270 271 272 271 271 272 271 271
272 270 268 270 272 272 271 268 267 264 276 281 281 278 281 273 274 279 280 281 282 281 281 281 281 280 281 280 281 281 281 281 281 281 282 282 282 281 280 279 278 278 277 277 277 276 274 273 272 272 271 271 271 270 269 268 266 265 266 265 265 266 266 266 265 265 264 264 264 264 263 264 264 264 265 265 266 266 266 267 268 269 269 269 269 269
278 270 271 272 275 268 268 266 266 274 278 282 279 274 278 280 282 283 282 280 283 282 281 281 281 281 282 281 280 280 280 280 281 281 281 281 280 280 279 278 278 277 276 276 275 273 272 271 270 269 269 269 268 268 267 265 264 263 263 263 265 264 264 263 263 262 262 261 261 261 261 261 262 262 262 263 263 263 263 264 265 266 267 267 267 267
277 273 275 271 276 273 270 274 278 280 281 282 282 281 282 283 284 283 283 282 281 281 282 281 281 282 281 281 280 280 279 280 280 280 279 278 278 277 277 276 276 275 274 273 272 271 270 268 267 266 266 266 266 265 264 264 262 262 261 262 263 263 262 262 261 260 260 260 260 260 260 260 260 261 261 261 262 261 262 262 263 263 264 265 265 265
280 280 281 278 275 279 280 280 281 280 281 281 283 283 282 283 284 284 283 281 282 282 283 281 281 281 280 280 278 278 279 279 279 278 277 277 276 276 276 275 275 274 273 271 270 269 267 266 265 264 263 263 263 263 263 263 262 260 261 262 262 262 261 261 260 259 259 259 259 259 260 259 259 260 260 260 261 261 261 261 262 262 262 263 263 264
279 280 277 274 277 274 269 279 278 279 280 281 282 283 284 284 283 284 283 282 282 282 281 280 280 279 279 278 277 277 277 278 276 276 276 275 275 274 274 273 272 271 270 268 268 266 265 264 262 261 261 260 262 262 262 261 261 261 262 261 261 261 260 260 259 258 258 258 259 259 259 259 259 259 260 260 261 261 261 261 261 261 261 262 262 263
274 281 276 276 275 273 273 277 279 281 281 282 281 281 281 282 283 283 283 282 281 279 279 278 278 277 277 275 276 276 275 276 275 274 274 273 273 272 272 271 270 269 268 267 266 265 263 262 260 260 260 260 261 261 261 261 261 261 261 261 261 260 260 259 258 258 258 258 258 258 258 258 259 259 259 260 260 260 260 261 261 260 260 260 261 261
278 280 272 275 273 276 278 279 279 280 280 280 281 282 283 283 283 282 280 279 278 277 276 276 276 277 276 275 275 274 273 273 273 273 272 271 271 270 270 268 268 267 266 264 264 263 261 260 259 259 259 259 260 260 260 260 260 261 261 261 260 259 258 258 258 258 257 258 258 257 258 258 259 259 259 259 259 260 260 260 260 260 260 261 262 261
278 274 277 275 272 272 272 275 278 273 274 278 281 282 282 283 283 281 278 277 276 276 275 274 274 274 273 273 272 272 270 271 271 271 269 269 268 268 267 266 265 264 263 263 262 261 260 260 259 259 258 259 260 260 260 260 260 260 260 260 259 259 258 258 257 257 256 257 257 257 257 258 258 258 258 258 258 259 259 262 265 264 262 261 265 268
277 277 277 274 272 272 277 279 280 280 279 280 281 282 280 280 280 279 278 277 277 276 275 274 273 272 271 271 271 269 269 269 269 268 267 267 266 266 265 264 263 262 262 261 260 259 259 259 259 259 258 259 260 259 259 259 259 259 259 259 259 259 258 257 257 256 256 256 256 257 257 257 257 257 258 258 258 258 258 258 260 265 267 267 267 268
Wind_Speed
7 9 9 10 12 12 12 14 18 18 17 18 16 13 16 17 17 15 17 15 12 10 12 14 16 17 16 15 16 17 18 18 19 18 19 18 15 12 9 8 4 7 5 5 7 10 11 10 9 8 8 9 7 7 7 4 3 2 2 2 4 4 6 6 6 6 6 7 7 7 8 8 7 7 7 7 7 7 7 8 8 8 9 9 10 10
2 10 11 12 14 13 14 12 11 14 14 15 15 15 16 14 17 15 17 14 15 13 12 11 16 16 17 18 21 20 17 17 17 17 19 19 13 9 5 6 5 5 5 8 11 12 12 12 12 11 10 12 12 11 10 9 8 6 5 3 2 2 4 6 6 5 6 6 6 6 6 7 6 6 7 7 7 7 6 7 7 7 8 9 9 9
7 11 10 13 13 14 12 8 10 9 13 14 13 13 14 13 15 17 18 11 6 4 11 12 17 15 18 21 20 16 12 12 14 16 17 14 6 3 4 4 5 4 9 12 13 13 13 15 15 13 12 13 13 12 12 11 10 9 6 5 4 2 1 3 4 4 4 5 5 5 4 5 5 5 5 5 5 6 7 6 6 7 7 8 7 8
10 7 15 14 13 13 13 11 10 13 12 11 11 11 12 10 12 12 4 2 4 3 11 14 17 13 17 18 12 5 6 9 13 17 14 4 5 3 4 6 5 10 11 14 14 15 15 15 15 15 14 13 12 12 12 12 12 9 10 8 6 4 2 2 2 3 2 3 3 3 3 1 3 2 2 3 3 4 5 6 6 6 6 8 8 8
13 8 7 6 10 11 13 12 12 9 12 11 13 12 12 15 14 14 13 15 16 15 14 12 12 11 5 4 5 7 5 6 15 10 3 9 4 5 8 12 14 14 14 14 16 16 16 16 16 16 15 13 13 12 12 12 12 9 11 10 8 6 5 4 3 1 2 1 2 2 2 2 1 1 1 3 5 6 6 7 7 8 9 10 10 10
15 11 5 4 6 9 10 11 12 12 13 11 12 13 16 16 16 15 15 14 9 10 4 8 8 4 4 1 4 7 8 14 11 7 8 8 7 9 13 14 14 14 14 15 15 15 15 15 15 16 16 16 14 14 12 11 11 12 11 11 9 7 6 6 5 3 2 1 2 3 3 4 4 5 5 6 6 6 7 7 7 7 8 9 9 9
7 3 2 8 9 8 9 11 13 11 11 10 7 6 10 11 11 12 13 8 6 4 3 4 5 9 4 12 11 7 11 18 8 11 11 11 12 12 13 13 14 13 12 13 15 15 16 16 16 17 17 16 15 14 12 11 11 12 11 11 10 8 7 6 6 5 3 2 3 4 5 4 5 5 4 4 5 5 4 4 6 6 7 8 9 9
7 10 2 2 6 8 8 10 11 13 10 10 5 6 6 7 9 9 7 6 10 10 13 10 7 9 9 7 6 9 13 7 11 12 14 13 14 14 14 14 14 14 14 12 14 15 15 16 16 16 16 16 16 14 13 12 11 13 13 12 11 9 8 8 7 5 4 4 3 4 4 5 5 5 5 5 3 3 3 3 4 4 5 7 8 8
3 5 5 5 7 7 9 10 4 5 8 3 3 6 4 4 7 6 6 7 8 9 9 3 9 5 6 3 7 9 7 10 10 12 12 14 13 14 14 14 14 14 15 15 13 15 16 15 15 14 15 15 15 14 13 13 13 12 13 14 13 11 10 9 8 7 5 4 5 5 4 5 5 5 5 5 3 2 2 3 3 4 4 5 7 8
1 1 3 5 5 7 7 3 3 1 8 3 1 1 2 3 4 5 6 7 8 7 12 4 10 6 10 5 4 3 3 8 9 10 14 14 13 12 12 13 13 12 13 13 14 14 15 15 14 13 12 13 12 11 12 12 11 13 13 15 15 14 10 10 10 8 7 6 5 5 5 6 6 6 6 5 5 4 3 3 4 4 4 4 5 7
3 3 3 2 7 6 3 3 3 3 2 3 2 6 8 7 6 6 6 6 5 9 12 12 15 9 8 3 3 3 5 8 9 7 9 13 12 12 12 13 11 11 11 12 13 14 14 13 12 12 13 12 12 10 11 10 11 13 14 14 15 15 11 12 11 11 9 7 6 5 6 7 7 7 6 5 5 5 5 5 4 4 4 4 5 6
8 5 2 5 11 2 3 3 2 2 1 1 4 4 6 8 7 5 4 4 4 9 3 4 7 10 5 2 4 7 8 7 7 9 9 10 11 11 10 8 10 11 10 10 11 13 14 14 15 15 15 14 13 12 13 13 13 14 14 14 15 16 15 13 12 12 11 9 8 7 6 6 6 7 6 6 6 5 5 5 5 5 4 5 4 5
6 12 9 5 2 9 6 5 3 3 3 4 5 4 4 5 2 6 4 4 8 7 4 2 3 6 12 12 9 14 8 8 11 10 12 12 11 11 10 9 8 8 9 10 11 11 10 11 11 13 13 12 13 13 15 15 14 14 15 16 16 16 15 14 13 12 12 11 10 9 8 8 7 6 6 6 6 6 6 5 5 5 5 4 4 5
7 4 9 7 1 7 7 7 5 3 7 6 6 4 3 6 7 10 9 8 9 2 4 3 3 7 11 12 14 9 10 11 13 13 12 12 12 11 8 7 7 8 8 8 8 8 8 8 8 8 9 10 11 14 14 14 14 13 13 15 15 15 15 14 13 13 12 12 11 10 9 8 7 7 7 6 5 5 5 5 6 5 5 5 6 6
10 7 6 9 3 9 11 9 4 4 8 9 6 7 5 4 4 9 6 10 8 8 8 1 5 3 3 3 14 14 11 13 12 11 12 13 10 9 8 8 7 8 8 8 8 8 8 8 8 7 7 8 10 13 13 12 13 13 13 14 15 15 15 14 13 12 13 11 12 11 9 8 7 7 7 7 6 6 6 6 6 6 6 6 7 6
9 10 3 7 3 13 11 12 2 4 2 4 0 3 1 6 3 6 5 7 7 11 12 5 6 4 6 8 11 12 13 12 12 12 11 11 9 8 6 5 6 8 8 7 8 7 8 7 7 6 7 8 10 12 11 12 11 11 11 12 13 13 13 13 14 13 12 12 11 12 12 11 10 8 7 6 6 7 7 7 6 7 7 7 7 7
3 7 7 5 0 9 6 6 6 6 5 3 4 5 4 3 6 3 3 8 9 5 14 6 9 13 9 14 12 14 14 11 11 10 10 9 8 7 6 6 7 8 7 6 6 6 5 4 4 5 7 9 9 10 11 11 10 11 10 11 12 12 11 12 12 12 11 11 11 11 11 10 9 9 9 8 9 9 7 7 6 6 7 7 7 7
9 11 2 6 6 8 4 1 2 2 2 6 3 3 4 1 2 4 8 3 6 10 8 5 13 11 8 8 11 13 13 10 8 9 9 9 7 7 6 5 5 5 5 4 3 2 2 3 4 5 5 6 7 8 9 10 9 8 9 10 10 11 12 11 11 11 10 10 10 10 11 10 9 8 8 8 8 8 8 8 7 7 7 7 6 6
3 6 8 10 10 3 2 1 5 5 2 4 2 4 3 4 5 7 4 10 10 12 9 8 12 13 10 11 5 8 12 10 7 6 8 8 7 6 6 5 4 2 1 1 2 2 4 5 6 6 7 7 8 8 8 7 7 8 7 8 7 8 8 9 8 8 8 9 7 7 9 10 10 9 8 8 8 7 7 7 7 8 8 8 7 7
0 7 5 5 2 3 2 4 8 6 4 2 1 4 2 3 6 9 8 5 6 15 11 11 11 12 8 4 9 8 11 11 9 6 5 5 4 4 3 3 2 1 2 3 4 5 5 6 5 6 6 7 7 7 6 7 6 8 7 7 7 7 7 8 8 8 8 7 7 8 8 9 8 9 9 9 10 9 9 8 8 8 7 7 7 6
6 5 12 2 3 2 6 5 8 8 5 4 5 8 4 4 2 3 2 6 8 11 11 11 12 8 2 4 6 10 8 8 9 8 6 4 3 2 2 0 1 1 1 1 2 3 3 3 3 3 3 3 3 2 2 2 2 2 2 4 6 8 8 8 8 7 7 8 8 9 9 10 9 10 9 10 10 9 9 9 8 7 8 7 6 6
3 4 11 7 6 7 9 4 6 5 8 7 6 8 11 8 7 8 12 5 5 7 8 9 13 6 3 5 6 8 7 8 7 8 6 6 5 5 3 3 2 2 3 3 3 4 3 3 3 2 3 4 2 1 1 1 1 1 2 2 2 3 4 4 5 5 6 6 6 6 7 8 8 8 8 8 8 9 9 9 9 9 9 9 8 7
2 2 4 7 9 12 13 3 4 1 1 2 2 4 5 6 4 7 13 8 4 4 4 6 9 2 5 5 8 7 7 7 7 7 7 5 5 4 3 3 3 3 2 2 3 2 1 1 2 2 2 3 3 3 4 4 4 4 4 4 3 4 4 4 4 4 3 4 5 6 5 5 5 6 7 7 6 7 7 7 6 7 7 8 8 7
3 2 5 9 8 12 14 10 5 3 2 4 5 5 5 10 7 7 6 4 4 2 7 7 9 1 5 8 6 7 6 5 3 4 5 5 3 3 2 1 1 1 2 2 2 3 3 3 3 3 3 3 3 4 5 5 6 6 6 6 6 6 6 6 5 5 5 6 6 6 6 6 6 6 6 7 6 7 7 8 8 8 8 7 7 8
2 3 1 3 6 4 8 7 2 4 3 2 1 4 3 4 2 3 3 2 7 7 11 10 11 3 2 3 2 2 2 1 2 2 2 2 3 2 1 1 2 2 3 3 3 4 4 4 5 5 5 5 6 6 5 6 6 7 6 7 8 8 8 8 7 7 7 7 7 7 6 7 6 6 6 6 6 7 7 7 7 8 9 9 10 10
4 4 5 8 7 7 6 8 8 2 2 1 3 8 7 5 7 5 6 4 8 0 4 8 9 2 3 5 5 5 4 3 3 2 1 2 1 3 1 2 1 2 2 4 4 5 5 5 5 5 6 6 6 6 6 6 6 6 6 6 6 6 7 8 8 8 9 9 8 8 7 7 6 7 7 6 6 6 6 6 5 6 5 6 8 8
2 1 3 8 11 12 11 8 4 3 6 8 4 3 7 6 3 3 6 5 7 6 7 7 10 12 14 12 7 7 7 6 6 5 5 4 4 3 3 2 2 3 3 4 5 4 5 5 6 6 6 6 6 6 5 6 6 6 6 6 6 5 5 6 6 7 7 8 9 9 9 9 8 7 7 6 6 7 6 6 6 7 6 6 6 7
2 7 10 11 11 13 15 17 17 14 13 12 11 12 10 11 6 7 10 11 3 9 13 7 12 10 10 10 10 7 6 8 7 6 4 4 3 3 3 3 4 4 3 3 4 5 5 6 6 6 6 7 6 7 6 5 5 5 5 6 6 5 5 4 5 6 7 7 8 8 8 8 8 9 8 8 8 8 8 7 7 7 7 7 6 6
4 10 11 13 12 16 17 18 17 16 13 13 15 16 16 15 12 13 11 11 13 12 16 12 19 18 14 15 15 16 7 5 5 3 3 3 3 3 5 6 6 7 6 5 6 5 5 5 4 5 5 5 6 6 7 7 7 7 6 7 6 6 6 5 5 6 7 7 7 7 7 8 7 7 8 8 9 10 10 10 9 9 9 9 9 8
3 9 13 13 13 14 15 15 13 14 14 16 17 18 18 20 21 19 18 17 19 19 17 22 23 26 21 24 10 4 6 5 3 2 2 4 5 5 5 5 5 6 6 6 6 5 5 6 5 6 6 6 6 6 6 5 5 5 6 6 6 6 6 6 5 6 6 7 7 7 7 7 7 7 7 7 9 9 9 9 9 10 9 10 10 10
5 6 6 3 5 8 9 11 12 12 12 15 16 19 21 23 22 19 20 21 19 19 21 22 22 22 11 6 9 6 7 4 4 3 3 3 2 2 3 5 6 6 7 8 8 8 7 7 7 7 7 7 7 7 6 6 6 5 6 6 6 6 6 6 6 7 7 8 8 8 8 8 8 8 9 8 8 6 7 9 7 7 8 9 8 10
3 8 4 1 8 12 10 10 8 10 10 9 10 16 21 21 19 17 16 12 14 15 18 19 16 14 2 4 5 4 4 4 1 1 2 1 2 4 5 6 6 7 7 8 8 9 9 9 8 8 8 8 8 8 8 8 8 7 7 7 7 6 6 6 6 7 7 8 8 8 9 8 9 9 9 9 8 8 7 7 8 8 8 8 9 9
3 4 3 4 8 8 8 7 5 2 6 11 16 21 19 19 19 20 19 19 20 18 16 14 12 3 3 3 4 5 4 4 3 4 3 3 3 4 6 7 7 8 8 9 9 10 10 10 10 10 10 9 9 9 9 9 8 8 8 8 7 6 6 7 7 8 8 8 9 9 9 10 9 9 10 9 9 8 8 8 9 9 10 10 10 10
5 6 10 7 6 3 8 4 1 4 13 15 2 2 7 11 11 14 14 15 16 14 5 3 2 3 4 4 4 2 4 4 5 5 4 3 4 5 7 7 7 8 8 8 9 9 10 10 10 10 10 10 11 10 9 8 9 9 9 8 8 8 9 10 10 10 11 12 12 14 14 13 11 13 13 12 12 11 12 12 12 10 8 9 9 10
8 9 10 8 11 12 9 1 5 14 16 2 4 4 3 5 8 13 17 17 15 13 4 8 4 7 5 5 3 3 4 6 8 8 8 7 6 6 7 7 7 7 8 8 9 10 10 11 12 12 12 11 10 10 10 10 9 8 7 8 9 9 10 10 11 12 13 13 13 12 11 12 12 12 12 12 13 12 12 13 13 14 13 11 11 12
11 10 9 9 10 10 10 11 11 11 1 1 3 3 4 3 8 10 12 14 14 11 10 6 5 4 6 3 4 4 6 8 8 8 8 8 6 6 6 6 6 7 8 8 9 10 11 11 11 9 9 9 10 10 9 9 8 8 8 9 10 10 10 11 11 13 13 13 12 12 13 12 13 13 12 12 12 12 12 12 12 13 12 12 11 12
14 11 10 12 9 12 11 14 18 12 17 12 11 12 8 5 5 8 6 2 9 3 4 4 3 6 4 4 5 6 7 7 7 7 6 3 3 2 5 6 7 7 8 9 10 11 10 9 9 10 9 9 9 9 9 9 8 8 10 10 10 10 11 11 12 13 14 12 13 13 13 13 13 13 12 12 13 14 14 13 14 13 11 12 12 13
13 13 8 11 8 11 13 13 13 12 13 5 4 1 4 3 6 6 4 4 11 8 7 5 7 7 5 5 6 7 6 7 8 7 5 5 5 6 6 5 7 8 9 10 9 9 9 9 10 10 9 11 11 10 9 9 10 10 10 10 11 11 13 12 13 13 13 13 12 13 14 12 11 12 13 15 16 16 15 13 12 13 11 12 13 14
7 11 12 12 9 8 12 13 12 10 4 6 3 4 4 5 4 5 5 8 1 2 1 5 5 3 2 6 7 7 5 6 8 8 6 8 9 8 8 8 9 8 8 8 8 8 9 10 10 10 10 10 11 11 11 11 10 10 10 11 13 12 12 12 14 13 13 13 14 14 12 12 13 13 15 16 17 16 16 16 16 15 13 13 12 14
4 6 7 10 12 11 11 11 13 5 7 1 1 3 3 3 3 3 10 7 3 2 1 2 3 4 4 5 6 4 5 7 8 9 9 11 10 9 8 9 7 7 7 8 7 7 9 10 10 10 10 10 10 10 11 10 9 9 10 11 11 11 11 13 13 13 14 15 15 12 13 13 14 14 14 16 17 17 16 16 16 16 14 13 12 13
4 3 8 13 12 12 15 12 8 9 3 3 2 3 5 3 2 4 12 3 3 4 4 2 2 6 6 6 5 6 6 8 9 11 12 12 11 9 8 5 4 6 7 8 8 8 8 8 8 9 11 9 10 11 10 8 9 10 10 11 11 11 12 12 13 13 14 14 15 14 14 14 14 16 18 18 18 18 17 15 16 17 16 16 15 14
2 3 4 9 11 11 11 12 11 9 5 1 5 8 8 1 6 10 2 6 9 5 4 6 7 8 7 7 7 7 9 10 12 12 13 11 9 8 6 4 5 7 6 7 8 8 7 8 9 10 10 9 10 11 8 8 10 11 11 10 11 12 14 14 14 14 13 14 15 15 16 17 17 17 16 17 18 18 18 17 17 16 17 16 16 18
4 4 6 9 6 7 8 9 9 11 2 6 5 7 6 5 7 4 3 5 5 3 5 6 7 7 7 7 8 9 10 11 11 12 11 10 7 6 6 6 7 7 8 8 8 7 8 9 10 10 11 10 11 10 9 9 11 11 11 12 14 13 12 13 12 13 13 13 14 14 14 15 17 16 15 15 17 18 19 18 18 18 18 18 18 19
3 7 7 9 5 9 8 8 6 3 7 2 5 5 4 6 7 3 1 3 3 4 6 5 5 6 6 7 8 9 10 11 11 10 9 7 6 6 6 7 7 7 7 7 6 7 7 8 9 11 11 10 10 10 9 9 12 12 13 15 13 13 12 13 13 13 14 13 14 15 15 14 16 15 14 15 16 16 18 19 18 18 17 17 16 17
8 11 8 10 4 8 6 9 7 8 7 4 8 8 9 11 9 4 6 7 9 8 5 5 6 6 5 6 8 9 9 9 10 7 6 7 7 7 7 7 7 7 7 7 8 7 6 8 11 12 13 10 10 9 8 8 10 13 15 14 12 14 14 14 15 15 16 16 15 15 14 14 13 14 15 15 14 15 16 17 16 16 16 16 17 18
6 10 8 12 11 11 14 13 12 11 11 8 7 8 11 13 12 10 10 9 7 7 3 5 5 5 4 4 5 6 8 8 8 7 7 7 7 8 7 7 6 6 6 7 7 8 8 9 9 10 13 12 8 9 8 8 8 13 14 13 14 14 14 16 16 19 18 18 16 15 15 17 18 15 14 14 13 13 14 15 15 15 15 15 15 16
12 14 10 8 6 9 9 9 10 14 16 14 15 15 12 11 12 10 10 10 7 2 2 2 3 4 3 3 5 6 7 6 7 7 7 7 8 8 7 7 6 6 7 6 8 9 9 9 10 11 11 13 10 8 8 9 9 10 13 15 14 15 14 15 18 19 19 17 16 16 16 17 14 14 14 13 12 12 13 13 13 14 15 15 15 15
10 12 10 13 14 12 11 13 15 14 14 14 13 12 13 14 13 12 6 1 2 3 1 3 3 3 4 3 6 6 7 6 6 7 6 6 7 7 6 6 7 7 7 7 8 8 7 8 10 12 13 12 12 10 10 10 10 12 13 12 13 12 16 16 17 19 18 18 18 16 15 15 19 19 14 14 12 13 13 12 13 14 15 14 15 15
8 2 5 4 9 10 14 17 17 17 18 18 17 16 13 12 10 8 5 4 5 5 5 4 4 4 4 4 2 4 5 6 5 6 7 6 6 6 6 7 8 7 8 9 8 7 7 9 10 11 12 13 12 11 11 11 12 10 11 12 13 15 15 17 20 17 19 18 16 16 15 15 14 14 14 14 14 13 13 13 14 14 16 15 14 16
12 15 7 4 11 12 11 12 11 10 10 11 13 13 13 10 9 5 6 4 5 6 6 6 5 4 3 2 2 2 3 4 5 5 6 6 6 7 7 8 7 8 8 7 7 8 9 9 10 13 13 12 11 11 12 12 11 11 12 13 13 12 15 18 18 18 17 15 15 16 15 14 14 14 14 15 15 15 15 18 24 20 18 18 23 31
13 16 11 12 12 11 11 13 13 13 15 14 15 6 5 5 5 6 6 7 6 6 5 6 5 5 5 4 2 2 3 4 5 5 5 5 6 6 7 8 9 9 9 9 9 8 8 10 11 13 14 12 11 11 11 13 13 12 12 12 12 13 14 15 18 17 16 16 14 15 16 15 15 15 14 14 15 15 16 16 14 22 28 30 29 29
Wind_Direction
173 213 203 206 226 236 242 232 240 257 270 280 282 275 274 278 280 281 278 287 293 300 273 281 289 294 297 296 290 278 272 268 272 280 280 277 275 280 278 283 347 38 351 8 33 47 38 28 19 19 21 15 24 24 11 4 357 323 263 198 206 188 198 194 194 195 195 196 200 207 211 213 208 210 209 207 209 209 208 203 197 186 184 183 183 187
227 233 229 232 246 259 266 283 282 272 270 276 280 280 279 277 280 279 287 294 291 287 287 292 290 293 301 297 280 273 272 270 266 269 266 267 278 296 338 59 45 348 59 67 62 51 45 35 31 31 32 28 31 26 25 25 13 8 356 317 280 200 196 203 199 194 198 204 206 205 213 215 215 206 207 214 210 213 212 209 201 193 187 184 184 187
215 234 238 239 249 259 268 276 273 283 279 276 272 277 281 277 284 284 279 283 309 342 283 300 299 298 289 277 279 283 271 258 254 249 256 269 310 33 59 303 331 61 77 64 55 47 40 35 28 25 25 29 28 24 28 25 28 31 20 10 340 328 237 216 213 204 206 209 215 220 224 215 218 220 222 218 217 207 210 205 201 197 189 187 185 183
253 243 235 238 252 260 261 257 266 271 265 261 261 260 262 283 286 294 280 115 229 237 299 303 297 289 271 266 276 277 214 237 247 248 255 16 65 334 350 29 60 78 59 55 46 39 33 31 28 24 22 21 22 21 21 24 30 33 26 17 7 355 342 313 233 239 242 231 215 210 240 218 225 230 207 213 212 208 205 208 200 201 198 193 189 184
251 284 60 241 242 250 260 265 265 262 262 249 247 259 275 271 272 283 301 304 306 294 284 301 285 284 270 152 169 210 235 245 255 264 148 90 90 86 70 72 58 59 55 49 43 36 29 28 27 23 20 18 23 21 22 23 28 30 29 23 17 13 5 354 353 268 272 218 177 164 121 94 180 227 185 187 211 205 202 207 203 205 198 196 195 190
260 266 119 245 232 253 257 262 252 251 266 271 263 261 262 272 286 293 302 315 308 294 81 344 317 306 139 211 318 304 300 279 289 103 112 90 93 83 85 73 64 58 53 52 47 42 37 31 28 23 19 19 18 19 16 20 31 35 33 28 26 31 26 16 7 354 300 266 251 225 222 232 232 242 230 231 228 213 212 215 215 210 205 202 203 201
297 88 210 242 251 246 244 253 254 251 261 272 282 320 288 293 299 301 301 306 288 297 103 47 325 288 251 274 272 273 263 257 289 90 70 79 72 58 53 58 53 43 45 46 48 44 39 32 27 25 19 15 15 12 8 14 25 38 41 35 32 33 32 34 10 7 335 306 291 279 272 279 278 275 265 253 246 241 229 217 212 207 204 207 206 207
194 232 191 246 241 241 243 249 244 234 252 261 35 338 340 310 300 305 307 281 273 285 282 260 220 267 288 274 250 223 249 286 64 76 87 79 68 67 59 53 54 49 38 40 41 40 41 36 33 25 20 16 12 5 6 9 16 30 36 39 35 34 35 31 18 22 12 336 333 318 301 290 286 286 293 307 302 260 251 223 206 202 202 203 210 213
199 188 208 202 208 230 236 250 355 218 232 287 37 15 351 335 307 299 287 282 284 302 296 186 204 255 255 293 161 247 259 78 72 80 71 60 59 64 60 52 49 51 49 38 35 35 35 33 30 28 25 19 15 11 8 9 11 22 31 35 34 34 33 22 26 23 21 8 344 334 323 311 308 305 302 303 306 285 243 227 207 209 204 200 207 214
169 52 202 236 233 242 245 39 15 168 248 95 279 32 254 259 233 258 268 280 287 287 272 231 192 253 287 296 215 135 158 97 97 95 79 66 48 39 51 55 52 44 41 38 34 34 33 29 29 29 29 28 22 15 12 13 17 26 29 31 30 30 29 23 24 22 25 21 7 347 339 326 318 319 316 316 313 310 294 246 226 218 216 210 204 211
256 138 66 261 227 250 78 70 25 333 354 64 324 291 271 248 247 234 244 262 273 255 264 244 196 228 293 296 308 122 72 116 121 106 96 99 88 59 43 42 42 48 44 36 29 27 30 27 26 22 28 26 25 21 17 16 25 31 31 28 31 26 23 22 23 22 22 25 20 11 351 338 325 320 311 306 308 312 308 293 276 247 235 221 212 205
227 187 190 229 232 170 205 129 80 90 44 278 271 281 303 275 221 247 238 201 249 269 23 31 183 222 240 99 119 83 78 81 112 126 101 82 81 81 73 58 46 41 37 42 40 29 20 17 17 18 16 15 15 19 20 20 24 29 28 26 29 27 23 21 19 21 22 18 19 15 5 344 332 321 312 309 307 303 296 294 290 287 264 243 228 214
223 221 215 168 225 207 189 242 158 161 162 215 245 252 268 291 248 255 176 218 217 254 116 47 24 253 239 252 304 307 77 78 69 106 115 109 91 78 70 59 58 51 48 43 44 40 28 20 12 11 10 10 13 16 20 21 22 25 26 24 26 25 21 20 20 21 22 24 18 13 5 359 345 330 319 312 313 313 305 301 290 278 273 266 247 229
280 101 189 180 104 206 201 198 178 209 185 200 219 231 251 270 261 266 275 277 270 139 136 105 78 272 272 273 255 246 81 83 94 92 94 95 98 96 90 77 66 66 58 53 52 50 38 27 18 10 8 12 16 19 23 22 23 24 25 24 27 26 22 21 21 20 21 22 19 14 12 358 350 342 332 326 329 330 319 313 305 296 285 278 268 262
289 267 194 169 208 158 194 218 232 320 166 196 200 197 236 263 274 283 279 275 292 310 329 194 324 249 326 14 86 104 101 99 86 88 93 94 86 81 81 80 80 75 66 61 55 46 40 32 24 12 9 16 23 25 23 21 22 25 25 23 24 23 21 22 22 21 23 21 18 15 11 8 360 353 341 336 340 337 331 323 314 304 297 290 288 283
243 256 211 171 20 156 185 217 189 112 250 183 176 39 215 230 101 247 263 279 289 298 294 242 221 278 281 100 114 106 104 95 100 94 95 90 90 88 78 67 66 61 57 53 56 47 42 31 14 4 11 24 30 28 27 23 21 22 20 23 27 24 19 19 20 23 23 21 19 16 12 8 3 355 348 341 344 342 335 326 317 308 302 297 295 290
218 264 108 104 15 196 188 173 201 180 264 118 146 211 226 76 155 278 257 231 265 263 254 246 264 260 250 251 147 120 106 105 102 102 94 93 90 89 82 72 60 59 51 50 51 52 39 33 26 22 21 24 28 27 28 26 22 22 20 20 22 22 21 19 18 17 18 19 21 21 18 13 8 5 357 349 347 344 339 329 318 308 306 302 296 293
270 277 172 165 236 230 39 315 259 210 325 109 203 204 64 38 355 237 268 253 221 245 269 260 267 273 264 289 133 131 117 122 105 102 102 102 112 95 82 67 62 64 74 70 74 83 71 62 47 43 38 33 31 27 29 28 23 20 22 21 23 20 16 12 12 12 13 13 11 10 13 12 14 12 7 2 356 350 343 337 328 321 314 312 310 305
337 283 263 209 245 55 10 195 262 214 289 267 269 9 287 241 240 207 228 251 253 255 269 235 272 265 257 248 167 167 137 128 110 106 113 108 103 103 99 90 86 82 97 89 65 55 38 29 23 27 32 41 40 35 30 23 23 26 28 23 28 28 24 17 11 7 11 14 11 5 5 6 5 8 11 7 7 3 356 347 335 325 318 313 308 305
177 279 268 58 319 102 166 180 234 199 127 127 331 269 195 301 253 264 242 259 252 268 270 264 242 265 257 329 305 166 129 126 125 117 98 105 104 109 114 127 140 130 49 23 19 19 15 12 1 358 4 14 19 21 14 8 13 20 15 15 20 21 23 22 18 15 11 10 10 6 3 4 4 4 6 8 9 8 2 353 342 331 324 319 316 308
271 225 274 246 12 251 231 187 238 241 225 185 225 245 220 218 359 298 308 247 244 259 247 268 258 260 297 7 48 88 102 117 135 134 136 131 134 130 141 221 75 30 348 307 280 264 266 268 282 286 289 301 294 288 298 301 319 316 334 9 14 16 9 12 13 8 6 0 3 6 7 3 2 359 1 3 7 3 1 353 345 339 330 320 315 315
265 232 258 284 250 223 248 276 317 278 288 276 234 232 232 232 228 241 246 200 227 225 241 249 256 243 90 13 56 82 88 88 98 121 133 159 161 163 159 166 197 183 195 211 222 229 235 223 240 257 242 240 258 307 317 295 242 321 5 13 6 16 12 7 356 2 350 353 359 6 1 358 356 357 357 3 5 2 354 347 347 344 338 333 327 325
331 22 296 260 251 265 280 320 137 106 314 37 339 284 345 308 298 248 259 244 229 227 281 276 295 253 46 3 42 66 87 97 108 121 124 129 131 136 139 152 176 193 221 229 229 230 250 300 309 334 355 360 9 13 16 13 15 10 10 18 15 15 9 9 345 349 339 333 353 357 351 349 351 354 356 357 359 360 353 348 343 343 339 335 330 327
96 213 233 248 255 276 280 274 98 82 77 249 229 222 242 268 295 286 279 15 300 304 243 242 236 155 60 35 47 47 67 85 101 98 123 127 127 108 97 63 62 328 324 334 1 358 7 19 23 32 26 24 20 21 17 14 11 11 7 9 2 5 5 5 0 347 345 342 341 341 350 352 349 351 350 352 347 350 346 344 344 343 343 341 336 335
270 243 232 329 301 282 269 241 141 65 99 78 357 341 333 291 305 271 274 302 275 225 254 272 268 254 50 72 17 67 77 54 90 68 57 93 106 98 114 338 327 331 332 353 8 9 10 16 12 15 15 10 12 11 7 8 5 3 2 360 359 353 352 354 350 352 348 350 348 348 351 349 349 348 346 348 340 341 341 338 339 340 340 342 339 337
266 283 297 280 273 266 256 254 270 270 10 315 231 259 256 262 286 308 277 260 250 51 255 253 265 87 190 235 219 203 218 220 137 120 91 90 139 157 210 226 278 303 325 343 354 353 358 357 3 8 6 3 2 1 356 355 356 352 352 351 348 345 341 345 345 344 345 344 344 341 344 345 346 343 340 337 336 333 330 328 327 326 321 324 324 324
269 238 238 250 256 261 270 297 329 265 286 276 291 267 257 248 208 225 266 254 256 299 295 269 270 290 293 283 249 219 212 238 227 192 193 177 175 193 212 250 254 306 322 333 338 334 337 342 348 351 351 354 353 352 351 347 344 342 340 335 336 334 329 331 335 337 337 334 334 332 334 336 337 335 332 332 329 323 320 322 323 320 320 320 317 316
231 266 250 248 243 254 268 272 279 281 275 275 273 272 272 268 253 246 246 253 352 326 277 241 269 278 271 276 272 258 225 212 216 199 185 180 180 202 241 248 278 275 286 298 311 317 321 326 326 333 336 337 341 338 337 341 330 327 326 324 325 327 326 323 328 327 325 321 318 318 319 323 324 325 322 324 325 323 321 322 322 319 314 313 306 305
276 268 269 268 268 271 271 270 274 275 267 271 275 272 269 272 267 252 245 262 273 257 267 292 292 285 276 278 280 280 246 188 165 180 165 177 186 204 226 240 248 255 258 262 261 261 264 267 277 286 297 304 313 318 325 329 330 327 327 324 320 322 322 319 320 317 317 316 313 313 315 315 314 307 307 313 318 318 320 323 323 322 320 318 313 307
264 259 262 263 269 270 272 271 269 266 266 268 267 268 269 268 264 264 271 275 271 270 274 277 275 273 280 283 294 98 89 107 113 132 160 190 211 214 241 259 279 281 266 252 256 258 260 259 263 268 270 275 277 286 293 297 296 299 299 300 303 308 310 314 312 310 311 309 306 304 304 301 299 295 292 298 298 300 302 305 310 313 314 313 310 307
238 271 88 21 280 262 260 262 265 264 271 268 267 269 268 265 267 273 279 272 272 271 265 264 263 267 277 53 93 104 112 118 134 203 198 253 257 285 286 291 292 294 288 284 276 276 275 274 269 268 265 263 267 270 276 272 272 268 269 273 281 285 288 293 298 298 300 301 302 303 301 301 296 295 292 283 282 286 289 291 293 295 297 298 298 298
283 262 307 285 279 273 270 271 273 276 277 274 276 265 258 262 270 267 262 264 260 261 263 267 265 267 68 78 89 115 94 104 24 16 322 331 346 329 314 308 310 313 316 310 301 289 283 279 278 273 267 265 265 264 262 258 253 250 252 260 264 265 269 269 270 278 281 287 294 296 297 294 296 296 292 288 284 283 281 282 284 287 286 288 290 290
263 280 285 287 276 259 267 284 298 342 296 269 242 242 253 258 255 260 259 258 254 262 264 256 271 13 115 107 93 103 91 10 5 334 7 331 345 335 317 308 307 310 315 317 315 312 303 293 283 279 275 272 270 267 263 265 265 263 263 269 271 281 282 280 281 284 284 286 288 284 285 288 290 293 293 291 287 284 284 282 284 286 288 288 290 292
232 239 261 261 262 284 288 318 66 285 264 251 351 75 219 251 264 268 266 264 267 262 290 13 115 144 123 95 93 48 31 346 348 320 328 299 295 307 296 299 306 313 319 325 330 328 324 319 307 289 280 278 276 279 289 297 295 289 292 299 306 302 301 298 297 297 298 299 300 298 297 296 295 294 295 295 295 295 294 296 294 292 283 285 286 282
246 248 252 253 260 268 277 201 254 238 245 351 121 244 222 251 247 251 260 263 271 277 264 270 184 139 129 86 75 11 348 338 322 318 294 285 275 276 287 300 311 319 325 327 331 330 327 325 324 326 326 324 333 344 340 331 322 323 329 337 333 327 314 306 298 294 290 288 287 285 284 279 276 273 273 275 276 277 278 281 288 295 299 298 297 293
242 240 249 251 251 266 255 247 250 243 140 194 247 162 187 240 248 268 267 262 261 264 272 274 248 154 137 73 33 353 336 315 309 295 285 272 259 267 299 314 323 326 324 327 326 325 329 333 340 354 360 353 343 334 334 330 339 346 336 328 312 301 296 293 290 287 286 283 284 284 283 281 281 281 279 278 275 268 268 271 274 278 279 280 281 282
235 249 248 259 238 249 243 245 248 288 288 262 253 255 213 224 244 244 281 301 89 270 272 223 231 156 121 17 357 342 322 310 299 295 281 330 350 326 309 319 322 321 321 324 327 328 342 360 355 345 343 343 341 340 339 334 332 325 316 310 305 305 302 300 296 293 290 289 292 293 291 288 287 288 289 290 287 279 276 279 280 279 276 274 274 274
231 232 240 249 246 241 252 260 266 265 264 267 93 61 50 92 51 351 337 276 283 253 233 207 197 137 24 336 335 326 325 300 299 299 333 10 5 337 333 313 321 322 327 330 343 350 353 352 344 338 337 333 334 335 332 335 332 324 317 316 317 312 304 302 300 302 304 303 303 302 300 299 299 300 300 300 295 289 287 288 288 285 282 276 277 274
243 242 239 235 254 250 246 249 249 250 264 102 277 106 85 104 25 342 289 282 14 60 91 128 108 61 2 320 319 322 323 302 291 302 324 347 330 328 324 321 318 327 338 358 1 348 342 336 330 327 331 336 336 341 352 346 337 329 323 321 315 312 308 307 306 307 310 312 311 309 309 309 308 305 303 300 297 297 296 295 293 287 285 281 278 275
190 217 211 233 239 237 245 245 248 248 259 54 96 78 94 77 30 345 288 290 96 261 81 61 28 354 335 316 308 298 278 285 290 301 327 316 315 316 316 318 327 341 357 346 343 345 330 323 329 333 341 343 343 357 355 343 334 328 321 315 311 308 304 304 307 311 312 307 304 303 304 302 297 296 299 299 297 297 293 292 289 285 284 281 279 278
175 223 209 224 230 236 237 250 261 262 264 175 222 132 132 115 52 278 255 303 177 201 203 82 308 294 289 287 277 281 265 275 289 299 305 306 303 305 316 347 7 356 339 338 337 345 326 333 338 335 340 345 350 351 343 338 334 326 322 314 308 304 306 309 310 309 306 304 302 301 304 308 309 308 304 299 295 293 289 285 283 285 284 282 279 275
238 191 251 230 233 236 238 249 246 261 254 303 238 161 150 165 251 255 323 112 153 165 191 213 246 261 265 261 268 268 280 282 289 292 290 292 297 308 327 347 339 329 330 333 342 345 345 345 336 330 336 342 344 341 341 345 334 321 314 307 302 306 307 309 309 308 307 307 306 305 306 304 300 297 296 295 293 290 286 284 284 282 282 281 277 274
220 179 220 227 231 234 238 250 257 260 116 188 186 87 220 228 255 272 144 177 162 204 228 237 244 256 250 266 271 281 285 287 287 288 289 289 299 312 326 329 326 324 325 334 339 10 12 339 330 329 333 338 338 340 341 343 323 313 312 305 306 310 310 310 310 308 306 302 299 295 295 295 295 295 295 290 287 285 285 286 283 280 278 277 274 273
238 260 251 250 222 246 234 229 229 270 270 200 183 235 234 221 242 280 298 275 254 287 284 278 259 263 252 252 273 280 283 288 287 282 282 286 300 313 312 316 320 322 325 335 353 4 5 334 327 322 326 332 328 332 335 328 316 315 313 306 314 316 314 312 309 306 300 297 293 292 290 289 289 288 287 288 290 288 285 284 283 282 278 276 275 276
188 224 227 258 235 256 247 261 274 292 290 265 194 227 250 270 275 278 297 283 289 285 270 250 271 286 241 245 261 269 279 278 283 289 291 295 302 304 310 313 324 326 332 338 345 354 0 338 324 321 315 320 322 322 322 321 314 310 307 308 317 314 313 310 309 307 302 299 298 295 293 291 289 290 288 286 286 286 286 284 282 280 276 273 271 269
226 246 233 252 256 259 270 277 284 279 262 242 226 227 249 261 267 274 267 270 261 271 257 262 282 282 252 216 246 259 259 271 279 284 290 296 298 300 304 308 315 328 332 344 336 348 345 329 317 311 309 313 323 315 317 320 317 309 302 308 311 311 310 308 308 305 300 300 296 294 295 294 292 285 281 282 282 279 282 285 287 285 284 280 275 273
242 243 247 238 243 264 256 250 253 258 260 261 263 260 255 253 261 265 270 266 273 206 174 209 250 258 233 199 225 252 262 266 273 279 288 292 293 297 302 308 313 328 337 332 336 346 330 329 317 315 317 311 319 317 313 308 300 292 300 307 308 308 307 306 301 300 299 298 299 298 297 293 291 292 290 285 282 277 279 282 282 281 282 281 279 276
248 234 244 228 242 238 258 262 258 257 264 264 267 269 266 266 264 262 257 179 119 113 167 157 132 192 183 220 229 245 254 262 268 276 286 288 293 302 305 310 318 325 326 335 329 330 322 318 315 313 314 310 313 314 309 304 302 304 304 302 304 304 305 301 301 299 299 299 299 296 295 291 290 291 288 287 284 284 283 280 278 280 278 280 281 281
271 204 232 178 233 240 248 253 262 268 265 265 263 261 258 257 260 259 140 151 149 156 158 167 190 218 202 233 236 253 260 262 270 279 283 289 291 295 307 318 322 321 324 323 318 324 319 315 307 303 303 304 307 304 302 302 303 298 302 304 306 305 303 303 301 300 299 298 296 292 292 290 289 287 287 287 286 280 277 280 281 278 277 270 271 271
251 245 222 239 254 251 237 241 243 256 260 262 254 256 255 246 246 215 135 154 174 181 179 185 189 183 206 236 242 244 249 269 273 281 283 287 294 305 313 318 320 317 313 313 314 314 308 303 302 304 303 297 300 301 302 301 297 300 304 306 304 304 302 305 305 302 299 297 294 293 293 293 291 291 289 287 286 287 282 273 275 277 279 281 275 274
236 240 238 245 242 251 249 247 243 243 258 269 281 278 125 136 167 177 191 194 186 182 174 185 197 193 193 209 182 212 257 271 283 302 297 294 299 313 314 316 314 311 310 314 312 307 305 304 302 299 297 297 299 299 300 300 300 301 302 302 300 301 300 302 302 298 295 294 292 293 294 292 290 288 286 286 286 285 286 288 278 275 278 279 281 280